Aeroporto :
LOGIN :

Iscrizione | Disclaimer

   EN    FR    IT 

 










Sommario :    VFR   VFR Marginale   IFR   IFR Intensivo   IFR Molto Intensivo
Visibilità : 
Base nubi : 
>= 8 km
>= 3000ft
5 / 8 km
1000 / 3000 ft
1500m / 5 km
500 / 1000 ft
800 / 1500m
200 / 500 ft
< 800m
< 200 ft
Simboli :   Temporali  Nebbia  Neve Forte  Precipitazioni Forti  Vento > 20 kt
SIGMETs :   Varie  Temporali  Ghiacco  Turbolenza  Onda orograficha  Ceneri Vulcaniche







- Altitudine del aeroporto : 1947 ft
- Codice IATA : OBF


EDMO - Oberpfaffenhofen

ULTIMO METAR :
  • 191550Z 36008KT CAVOK 25/15 Q1016

METARs OBSOLETI :
  • 191520Z 33009KT CAVOK 25/14 Q1016
  • 191450Z 29005KT 180V350 CAVOK 26/13 Q1016
  • 191420Z 30006KT 200V340 CAVOK 26/14 Q1016
  • 191350Z 29005KT 240V340 CAVOK 26/13 Q1016
  • 191320Z 29006KT CAVOK 26/15 Q1017

TAF TAF EDMO
Valido dal 19 a 15 ore il 20 a 00 ore UTC


191400Z 1915/1924 30005KT 9999 FEW050
BECMG 1916/1918 VRB02KT
Nessun NOTAM noto per questo aeroporto.



MetMap, La meteo Aeronautica in un colpo d'occhio ! - Copyright ORBIFLY Dicembre 2007 - Disclaimer

ORBIFLY MET'MAP TEAM :

Programmazione e sviluppo : Alexandra Zaïnal
Concezione e sviluppo : Baudouin d'Aumeries
Co-Programmazione e sviluppo : Marc-Olivier Méhu
Supporto tecnico e logistico : Manuel Goepfert
Aiuto per la traduzione : Arnaldo La Scala

Contatto : metmap@orbifly.com




FONTI E CREDITI :

   NOAA